Home > Weather > Haarlem > Past weeks

Flag for Netherlands Past Weather in Haarlem, Netherlands — Yesterday and Last 2 Weeks

Now
66 °F

Passing clouds.


Feels Like: 66 °F
Forecast: 60 / 69 °F
Wind: 20 mph from North

Location: Amsterdam Schiphol Airport

Current Time: May 30, 2016 at 6:27:05 PM

Latest Report: May 30, 2016 at 5:55 PM


Visibility: N/A

Pressure: 29.65 "Hg

Humidity: 78%

Dew Point: 59 °F

Location of HaarlemLocation

Past Weather in Haarlem — Graph

°F

Haarlem Temperature Yesterday

Maximum temperature yesterday: 68 °F (at 1:25 PM)
Minimum temperature yesterday: 59 °F (at 3:55 AM)
Average temperature yesterday: 63 °F

High & Low Weather Summary for the Past Weeks

 TemperatureHumidityPressure
High72 °F (May 21, 2:55 PM)100% (May 18, 11:25 PM)30.15 "Hg (May 18, 11:25 PM)
Low41 °F (May 16, 1:25 AM)52% (May 17, 3:25 PM)29.65 "Hg (May 18, 6:25 PM)
Average57 °F81%29.92 "Hg
* Reported May 15 4:25 PM — May 30 4:55 PM, Haarlem, Weather by CustomWeather, © 2016

Note: Actual official high and low records may vary slightly from our data, if they occured in-between our weather recording intervals... More about our weather records

Advertising

Haarlem Weather History for the Previous 24 Hours

Scroll right to see more
 ConditionsComfort  
Time TempWeatherWind HumidityBarometerVisibility
4:55 PM
Mon, May 30
66 °FScattered clouds.20 mph78%29.65 "HgN/A
4:25 PM64 °FScattered clouds.21 mph83%29.68 "HgN/A
3:55 PM66 °FBroken clouds.17 mph78%29.68 "HgN/A
3:25 PM66 °FScattered clouds.15 mph78%29.71 "HgN/A
2:55 PM66 °FBroken clouds.22 mph78%29.71 "HgN/A
2:25 PM64 °FMostly cloudy.21 mph83%29.71 "HgN/A
1:55 PM63 °FMostly cloudy.16 mph83%29.71 "HgN/A
1:25 PM63 °FMostly cloudy.18 mph83%29.71 "HgN/A
12:55 PM61 °FMostly cloudy.18 mph88%29.74 "HgN/A
12:25 PM61 °FLow clouds.17 mph88%29.74 "HgN/A
11:55 AM61 °FLow clouds.17 mph88%29.74 "HgN/A
11:25 AM61 °FLow clouds.16 mph88%29.74 "HgN/A
10:55 AM61 °FLow clouds.15 mph88%29.74 "HgN/A
10:25 AM59 °FMostly cloudy.15 mph94%29.74 "Hg5 mi
9:55 AM59 °FLow clouds.15 mph94%29.74 "Hg4 mi
9:25 AM59 °FMostly cloudy.14 mph94%29.74 "Hg4 mi
8:55 AM59 °FFog.16 mph94%29.74 "Hg3 mi
8:25 AM59 °FFog.16 mph94%29.74 "Hg3 mi
7:55 AM59 °FMore clouds than sun.14 mph94%29.74 "Hg4 mi
7:25 AM59 °FLow clouds.13 mph94%29.74 "Hg5 mi
6:55 AM59 °FLow clouds.13 mph94%29.74 "HgN/A
6:25 AM59 °FPassing clouds.14 mph94%29.74 "HgN/A
5:55 AM59 °FPassing clouds.13 mph94%29.74 "HgN/A
5:25 AM59 °FPassing clouds.13 mph94%29.74 "HgN/A
4:55 AM59 °FMostly cloudy.12 mph94%29.77 "HgN/A
4:25 AM59 °FPassing clouds.14 mph94%29.74 "HgN/A
3:55 AM59 °FPassing clouds.12 mph94%29.77 "Hg6 mi
3:25 AM59 °FPassing clouds.12 mph94%29.77 "Hg6 mi
2:55 AM59 °FPassing clouds.12 mph94%29.77 "Hg4 mi
2:25 AM59 °FPartly cloudy.12 mph94%29.80 "Hg3 mi
1:55 AM61 °FLight rain. Passing clouds.12 mph88%29.77 "Hg6 mi
1:25 AM61 °FPassing clouds.12 mph88%29.80 "HgN/A
12:55 AM61 °FPassing clouds.13 mph88%29.80 "HgN/A
12:25 AM61 °FPassing clouds.10 mph88%29.80 "HgN/A
11:55 PM
Sun, May 29
61 °FPassing clouds.9 mph88%29.80 "HgN/A
11:25 PM61 °FPassing clouds.10 mph88%29.80 "HgN/A
10:55 PM61 °FPassing clouds.12 mph88%29.80 "Hg6 mi
10:25 PM61 °FSprinkles. Partly sunny.10 mph88%29.80 "Hg4 mi
9:55 PM61 °FSprinkles. Partly sunny.9 mph88%29.80 "Hg6 mi
9:25 PM61 °FSprinkles. Partly sunny.9 mph88%29.80 "HgN/A
8:55 PM61 °FPartly sunny.12 mph88%29.80 "HgN/A
8:25 PM61 °FScattered clouds.13 mph88%29.80 "HgN/A
7:55 PM63 °FPassing clouds.14 mph83%29.80 "HgN/A
7:25 PM63 °FPassing clouds.15 mph77%29.80 "HgN/A
6:55 PM63 °FPassing clouds.14 mph83%29.80 "HgN/A
6:25 PM63 °FPassing clouds.14 mph83%29.80 "HgN/A
Weather by CustomWeather, © 2016

See weather overviewHow to use our weather pages